Regional Weather Roundup
Issued by NWS San Diego, CA

Home | Current Version | Previous Version | Text Only | Print | Product List | Glossary On
Versions: 1 2 3 4 5 6 7 8 9 10 11 12 13 14 15 16 17 18 19 20 21 22 23 24 25 26 27 28 29 30 31 32 33 34 35 36 37 38 39 40 41 42 43 44 45 46 47 48 49 50
000
ASUS46 KSGX 261410
RWRSGX

SAN DIEGO HOURLY WEATHER ROUNDUP
NATIONAL WEATHER SERVICE SAN DIEGO CA
600 AM PST MON JAN 26 2015

NOTE: "FAIR" INDICATES FEW OR NO CLOUDS BELOW 12,000 FEET WITH NO
SIGNIFICANT WEATHER AND/OR OBSTRUCTIONS TO VISIBILITY.

CAZ042-043-060-061-PZZ750-775-261500-

GREATER SAN DIEGO AREA

CITY           SKY/WX    TMP DP  RH WIND       PRES   REMARKS
LINDBERGH FLD  MOCLDY    62  34  35 CALM      29.98R
POINT LOMA       N/A     69  25  19 E5          N/A
NATIONAL CITY    N/A     59  38  45 CALM      29.98R
CHULA VISTA      N/A     58  40  50 CALM      29.90R
BROWN FIELD    MOCLDY    69  27  20 SE14      29.98R
MIRAMAR MCAS   MOCLDY    59  32  36 E7        29.97R
MONTGOMERY FLD MOCLDY    58  34  40 S7        29.98R

$$

NORTH SAN DIEGO COUNTY

CITY           SKY/WX    TMP DP  RH WIND       PRES   REMARKS
CAMP PENDLETON CLOUDY    68  32  26 SE8       29.95F
OCEANSIDE AP   CLOUDY    65  35  33 NE5       29.93S
OCEANSIDE HBR    N/A     68  37  32 E3        29.96R
VISTA            N/A     71  40  32 E1        29.93F
CARLSBAD       CLOUDY    70  34  26 VRB5      29.95R
DEL MAR          N/A     66  33  29 CALM      29.98R
LA JOLLA SCRIP   N/A     70  30  22 CALM      29.94R
FALLBROOK        N/A     70  30  22 E8        29.95F
ESCONDIDO        N/A     71  43  36 S6        29.97R
SAN MARCOS       N/A     72  40  31 NE2       29.92F
POWAY            N/A     68  41  38 CALM      29.98R

$$

EAST SAN DIEGO COUNTY

CITY           SKY/WX    TMP DP  RH WIND       PRES   REMARKS
RAMONA         MOCLDY    64  37  36 NE17      29.99R
SANTEE LAKES     N/A     58  38  47 CALM      29.98R
LA MESA          N/A     61  33  35 CALM      29.92R
JAMUL            N/A     60  34  37 CALM      29.98R
DESCANSO N       N/A     56  35  44 E24       29.89R
MT. LAGUNA OBS   N/A     43  29  57 E12       29.70S
CAMPO            N/A     58  29  33 E16G25    30.04R

$$

ORANGE COUNTY AND THE LOS ANGELES BASIN

CITY           SKY/WX    TMP DP  RH WIND       PRES   REMARKS
JOHN WAYNE AP  CLOUDY    64  40  41 CALM      29.97R
LAGUNA BEACH     N/A     60  40  47 NW8       29.91F
LAKE FOREST FR   N/A     73  27  18 E12       29.86S
SANTA ANA        N/A     62  46  56 CALM      29.92S
HUNTINGTON BCH   N/A     58  44  59 CALM      29.99R
LOS ALAMITOS   FAIR      57  46  65 W3        29.97S
FULLERTON      CLOUDY    65  34  31 NE5       29.96F
LONG BEACH     CLOUDY    62  37  39 CALM      29.97F
L.A. AP        CLOUDY    64  36  35 NE3       29.98S
L.A. DOWNTOWN  CLOUDY    62  38  40 CALM      29.98S

$$

THE INLAND EMPIRE

CITY           SKY/WX    TMP DP  RH WIND       PRES   REMARKS
CORONA         CLOUDY    54  42  63 CALM      30.02S
CHINO          CLOUDY    55  44  66 CALM      30.02F
ONTARIO        CLOUDY    62  33  33 NE3       30.02R
RIVERSIDE AP   CLOUDY    58  35  42 NE7       30.02S
RIV CYN CREST    N/A     62  43  49 S6          N/A
MORENO VALLEY    N/A     63  38  39 E7        29.23R
MARCH ARB      CLOUDY    55  35  46 S6        30.04R
HORSETHIEF CYN   N/A     61  28  28 E2        29.96R
PERRIS           N/A     59  38  45 CALM        N/A
MENIFEE          N/A     58  41  52 CALM      30.12S
HEMET EAST       N/A     59  24  26 CALM      30.03S
FRENCH VALLEY  CLOUDY    66  34  30 E10G17    30.03F
TEMECULA         N/A     68  39  34 NE9       29.96F

$$

SAN BERNARDINO AND RIVERSIDE COUNTY MOUNTAINS

CITY           SKY/WX    TMP DP  RH WIND       PRES   REMARKS
BIG BEAR AP    CLOUDY    36  23  60 CALM      30.23S
PINE COVE        N/A     47  23  38 S2        30.03R

$$

SOUTHERN DESERT INCLUDING THE COACHELLA VALLEY

CITY           SKY/WX    TMP DP  RH WIND       PRES   REMARKS
PALM SPRINGS   CLOUDY    59  34  39 NE3       30.08R
PALM DESERT      N/A     56  40  53 W2        29.75S
THERMAL        CLOUDY    55  39  54 NW5       30.03F
BLYTHE         CLOUDY    53  34  48 N7        30.07S
IMPERIAL AP    CLOUDY    59  41  51 NW5       30.04R
EL CENTRO NAS  MOCLDY    56  41  57 W6        30.04R
YUMA AZ        LGT RAIN  58  43  57 E12       30.06R

$$

UPPER DESERT

CITY           SKY/WX    TMP DP  RH WIND       PRES   REMARKS
VICTORVILLE AP MOCLDY    45  30  57 CALM      30.10F
HESPERIA         N/A     47  32  57 CALM      30.21F
APPLE VALLEY     N/A     44  33  65 CALM      30.15F
PALMDALE       MOCLDY    41  34  76 SW3       30.11S
LANCASTER      PTCLDY    35  31  85 SW3       30.12R
EDWARDS AFB    MOCLDY    38  31  74 CALM      30.09S
DAGGETT        MOCLDY    44  31  60 CALM      30.11R
29 PALMS N     CLOUDY    48  29  47 CALM      30.19R
NEEDLES        CLOUDY    57  32  38 NW7       30.10S

$$

REGIONAL REPORTS

CITY           SKY/WX    TMP DP  RH WIND       PRES   REMARKS
SANTA BARBARA  MOCLDY    52  43  71 CALM      29.96R
SANDBERG       MOCLDY    55  25  31 E16       30.13S
MT. WILSON       N/A     50  19  29 MISG        N/A
LAS VEGAS NV   PTCLDY    53  31  42 SW10      30.14R
PHOENIX AZ     CLOUDY    57  30  35 CALM      30.08R
TIJUANA        PTCLDY    70  23  17 E14       30.00R

$$

OFFSHORE ISLANDS

CITY           SKY/WX    TMP DP  RH WIND       PRES   REMARKS
CATALINA ARPT  CLOUDY    66  26  22 E13       30.01F
SAN NICOLAS IS CLOUDY    65  25  22 CALM      29.97R

$$

MARINE AND OFFSHORE BUOY REPORTS

STATION/POSITION SKY/WX   TEMP    WIND        PRES    SWELL
                          AIR SEA DIR/SP/G            HT/PER/DIR
                          (F)     (DEG/KT/KT) (MB)    (FT/S/D)
TANNER BANKS               64 62   10/  2/  4 1014.3S   7/280/15
S CLEMENTE BASIN           64 63   CALM  /  2 1014.3R   5/290/15
SAN NICOLAS IS.               62                N/A     5/290/14
SO. S. ROSA ISLA           63 61  320/  2/  4 1014.1R   7/14
W. S. BARBARA CH           61 60  190/  6/  8 1014.4R   7/280/15
S. MONICA BASIN            64 62   60/  4/  6 1014.9R   3/280/15
S PEDRO CHANNEL               62                N/A     3/270/14
DANA POINT                    62                N/A     3/270/13
CMP PENDLETON NS              61                N/A     2/250/14
OCEANSIDE OFFSHR              62                N/A     3/270/14
TORREY PINES OTR              62                N/A     3/270/13
LA JOLLA 1                 70 62  230/  1/  3 1014.3S
MISSION BAY BUOY              62                N/A     3/280/15
SAN DIEGO BAY                 62              1014.9R
POINT LOMA SOUTH              63                N/A     3/270/14

$$



USA.gov is the U.S. government's official web portal to all federal, state and local government web resources and services.